Location: Hilton Head Island
(32.2163°N, 80.7526°W)
Time: 00:59:13
(UTC-05:00)

Vanguard 2 Rocket - Pass Details

Date: 21 February 2026
Orbit: 553 x 3287 km, 32.9° (Epoch: 5 March)

Event Time Altitude Azimuth Distance (km) Brightness Sun altitude
Rises 09:12:49 0° 213° (SSW) 6,474 11.2 25.3°
Reaches altitude 10° 09:17:10 10° 207° (SSW) 5,733 11.1 26.1°
Maximum altitude 09:34:11 43° 143° (SE) 4,126 12.0 29.1°
Drops below altitude 10° 09:51:09 10° 80° (E) 5,772 11.6 31.9°
Sets 09:55:27 0° 74° (ENE) 6,525 11.7 32.6°
